Weather History for Fredericton, NB

Change the Weather History Date:

Thursday, August 22, 2013

  Actual Average Record
Temperature  
Mean Temperature 74 °F -  
Max Temperature 87 °F 69 °F 87 °F (2013)
Min Temperature 60 °F 47 °F 46 °F (2012)
Cooling Degree Days 8    
Growing Degree Days 24 (Base 50)    
Moisture  
Dew Point 65 °F    
Average Humidity 83    
Maximum Humidity 100    
Minimum Humidity 35    
Precipitation  
Precipitation 0.94 in 0.12 in - ()
Sea Level Pressure  
Sea Level Pressure 29.79 in    
Wind  
Wind Speed 7 mph ()    
Max Wind Speed 18 mph    
Max Gust Speed 24 mph    
Visibility 6.3 miles    
Events Rain , Thunderstorm    
Averages and records for this station are not official NWS values.
T = Trace of Precipitation, MM = Missing Value Source: Averaged Metar Reports

Daily Weather History Graph

Daily Weather History Graph

Search for Another Location

Airport:

Trip Planner

Search our weather history database for the weather conditions in past years. The results will help you decide how hot, cold, wet, or windy it might be!

Date:

Astronomy

Aug. 22, 2013 Rise Set
Actual Time 6:34 AM ADT 8:22 PM ADT
Civil Twilight 6:03 AM ADT 8:53 PM ADT
Nautical Twilight 5:24 AM ADT 9:32 PM ADT
Astronomical Twilight 4:41 AM ADT 10:14 PM ADT
Moon 8:53 PM ADT (8/22) 8:27 AM ADT (8/22)
Length of Visible Light 14h 50m
Length of Day
13h 47m
Full, 97% of the Moon is Illuminated
Aug 22
Full
Aug 28
Last Quarter
Sep 5
New
Sep 12
First Quarter
Sep 19
Full

Hourly Weather History & Observations

Time (ADT) Temp. Heat Index Dew Point Humidity Pressure Visibility Wind Dir Wind Speed Gust Speed Precip Events Conditions
12:00 AM 69.8 °F - 62.6 °F 78% 29.94 in 9.0 mi South 9.2 mph - N/A   Clear
1:00 AM 68.0 °F - 62.6 °F 83% 29.93 in 9.0 mi SSW 10.4 mph - N/A   Clear
2:00 AM 66.2 °F - 60.8 °F 83% 29.92 in 9.0 mi South 8.1 mph - N/A   Clear
3:00 AM 65 °F - 61 °F 83% 29.91 in 10 mi SSW 8.1 mph - -  
3:00 AM 64.4 °F - 60.8 °F 88% 29.91 in 9.0 mi South 8.1 mph - N/A   Clear
4:00 AM 62.6 °F - 60.8 °F 94% 29.91 in 9.0 mi SSW 6.9 mph - N/A   Clear
5:00 AM 60.8 °F - 59.0 °F 94% 29.88 in 8.0 mi South 4.6 mph - N/A   Clear
6:00 AM 60.8 °F - 59.0 °F 94% 29.88 in 8.0 mi SSW 5.8 mph - N/A   Clear
6:32 AM 60.8 °F - 59.0 °F 94% 29.88 in 5.0 mi SSW 2.3 mph - N/A   Clear
7:00 AM 60.8 °F - 59.0 °F 94% 29.89 in 5.0 mi Variable 2.3 mph - N/A   Clear
7:26 AM 62.6 °F - 60.8 °F 94% 29.89 in 6.0 mi South 5.8 mph - N/A   Clear
8:00 AM 64.4 °F - 60.8 °F 88% 29.89 in 8.0 mi SSW 5.8 mph - N/A   Clear
9:00 AM 69.8 °F - 62.6 °F 78% 29.87 in 9.0 mi SSW 8.1 mph - N/A   Clear
10:00 AM 75.2 °F - 64.4 °F 69% 29.86 in 9.0 mi SSW 8.1 mph - N/A   Clear
11:00 AM 80.6 °F 82.7 °F 66.2 °F 61% 29.84 in 9.0 mi SW 12.7 mph 19.6 mph N/A   Clear
12:00 PM 82.4 °F 84.6 °F 66.2 °F 58% 29.83 in 9.0 mi SSW 11.5 mph 18.4 mph N/A   Clear
1:00 PM 84.2 °F 86.6 °F 66.2 °F 55% 29.81 in 9.0 mi SSW 15.0 mph 20.7 mph N/A   Clear
2:00 PM 86.0 °F 87.3 °F 64.4 °F 48% 29.79 in 9.0 mi SSW 18.4 mph - N/A   Partly Cloudy
3:00 PM 87 °F - 63 °F 35% 29.78 in 10 mi SSW 13.8 mph - -  
3:00 PM 87.8 °F 88.5 °F 62.6 °F 43% 29.78 in 9.0 mi SW 9.2 mph 21.9 mph N/A   Scattered Clouds
4:00 PM 87.8 °F 89.4 °F 64.4 °F 46% 29.76 in 9.0 mi SSW 12.7 mph 21.9 mph N/A   Partly Cloudy
5:00 PM 86.0 °F 87.3 °F 64.4 °F 48% 29.74 in 9.0 mi SW 15.0 mph - N/A   Scattered Clouds
6:00 PM 82.4 °F 84.6 °F 66.2 °F 58% 29.75 in 9.0 mi NW 9.2 mph - N/A   Mostly Cloudy
6:08 PM 80.6 °F 82.7 °F 66.2 °F 61% 29.75 in 9.0 mi WNW 8.1 mph 21.9 mph N/A Thunderstorm Mostly Cloudy
6:30 PM 77.0 °F - 66.2 °F 69% 29.76 in 9.0 mi NW 12.7 mph - N/A Rain Light Rain
6:40 PM 73.4 °F - 66.2 °F 78% 29.76 in 9.0 mi WNW 3.5 mph 17.3 mph N/A   Overcast
6:58 PM 73.4 °F - 66.2 °F 78% 29.76 in 9.0 mi Variable 4.6 mph - N/A Rain Light Rain
7:00 PM 73.4 °F - 66.2 °F 78% 29.76 in 9.0 mi Variable 3.5 mph - N/A Rain Light Rain
7:09 PM 73.4 °F - 66.2 °F 78% 29.75 in 9.0 mi NW 4.6 mph - N/A   Mostly Cloudy
7:12 PM 73.4 °F - 66.2 °F 78% 29.75 in 9.0 mi WNW 4.6 mph - N/A Rain Light Rain
7:24 PM 73.4 °F - 66.2 °F 78% 29.75 in 9.0 mi Calm Calm - N/A   Mostly Cloudy
7:34 PM 73.4 °F - 68.0 °F 83% 29.75 in 9.0 mi Calm Calm - N/A Rain Light Rain
8:00 PM 71.6 °F - 68.0 °F 88% 29.75 in 9.0 mi Variable 2.3 mph - N/A   Mostly Cloudy
9:00 PM 70 °F - 67 °F 88% 29.76 in 7 mi South 5.8 mph - -   Clear
9:00 PM 69.8 °F - 66.2 °F 88% 29.76 in 7.0 mi SSW 8.1 mph - N/A   Overcast
9:02 PM 69.8 °F - 68.0 °F 94% 29.75 in 7.0 mi South 6.9 mph - N/A Rain Light Rain
9:15 PM 71.6 °F - 68.0 °F 88% 29.75 in 9.0 mi WSW 5.8 mph - N/A Rain , Thunderstorm Light Thunderstorms and Rain
9:25 PM 71.6 °F - 68.0 °F 88% 29.77 in 6.0 mi SW 12.7 mph - N/A Rain , Thunderstorm Heavy Thunderstorms and Rain
9:26 PM 71.6 °F - 66.2 °F 83% 29.76 in 4.0 mi SSW 16.1 mph 24.2 mph N/A Rain , Thunderstorm Heavy Thunderstorms and Rain
9:29 PM 71.6 °F - 64.4 °F 78% 29.76 in 2.5 mi South 15.0 mph 24.2 mph N/A Rain , Thunderstorm Heavy Thunderstorms and Rain
9:30 PM 71.6 °F - 64.4 °F 78% 29.75 in 2.5 mi South 13.8 mph 24.2 mph N/A Rain Heavy Rain
9:40 PM 69.8 °F - 66.2 °F 88% 29.76 in 2.5 mi South 6.9 mph - N/A Rain Light Rain
9:42 PM 68.0 °F - 66.2 °F 94% 29.76 in 3.0 mi South 3.5 mph - N/A Rain Light Rain
9:45 PM 68.0 °F - 66.2 °F 94% 29.76 in 4.0 mi Variable 2.3 mph - N/A Rain , Thunderstorm Light Rain
9:47 PM 68.0 °F - 66.2 °F 94% 29.75 in 7.0 mi South 3.5 mph - N/A Rain , Thunderstorm Light Rain
9:53 PM 68.0 °F - 66.2 °F 94% 29.75 in 9.0 mi Calm Calm - N/A Rain , Thunderstorm Light Thunderstorms and Rain
10:00 PM 68.0 °F - 66.2 °F 94% 29.75 in 7.0 mi SE 4.6 mph - N/A Rain , Thunderstorm Light Thunderstorms and Rain
10:11 PM 68.0 °F - 66.2 °F 94% 29.76 in 5.0 mi Variable 8.1 mph - N/A Rain , Thunderstorm Light Thunderstorms and Rain
10:17 PM 69.8 °F - 66.2 °F 88% 29.77 in 4.0 mi SW 6.9 mph - N/A Rain , Thunderstorm Heavy Thunderstorms and Rain
10:21 PM 68.0 °F - 66.2 °F 94% 29.77 in 2.2 mi SW 8.1 mph - N/A Rain , Thunderstorm Heavy Thunderstorms and Rain
10:22 PM 68.0 °F - 66.2 °F 94% 29.77 in 1.8 mi WSW 6.9 mph - N/A Rain , Thunderstorm Heavy Thunderstorms and Rain
10:30 PM 69.8 °F - 68.0 °F 94% 29.77 in 1.0 mi WNW 5.8 mph - N/A Rain , Thunderstorm Thunderstorms and Rain
10:34 PM 69.8 °F - 68.0 °F 94% 29.75 in 1.5 mi North 6.9 mph - N/A Rain , Thunderstorm Heavy Thunderstorms and Rain
10:37 PM 69.8 °F - 68.0 °F 94% 29.76 in 1.8 mi North 4.6 mph - N/A Rain , Thunderstorm Light Thunderstorms and Rain
10:39 PM 69.8 °F - 68.0 °F 94% 29.76 in 2.0 mi North 5.8 mph - N/A Rain , Thunderstorm Light Thunderstorms and Rain
10:49 PM 68.0 °F - 68.0 °F 100% 29.75 in 2.2 mi NNE 5.8 mph - N/A Thunderstorm Overcast
11:00 PM 68.0 °F - 68.0 °F 100% 29.75 in 2.5 mi NE 4.6 mph - N/A   Overcast
11:05 PM 69.8 °F - 68.0 °F 94% 29.75 in 3.0 mi Variable 2.3 mph - N/A   Overcast
11:21 PM 68.0 °F - 68.0 °F 100% 29.74 in 3.0 mi Variable 2.3 mph - N/A Thunderstorm Overcast
11:24 PM 68.0 °F - 68.0 °F 100% 29.74 in 2.2 mi Calm Calm - N/A Thunderstorm Overcast
11:34 PM 68.0 °F - 66.2 °F 94% 29.75 in 1.8 mi SW 8.1 mph - N/A Thunderstorm Overcast
11:41 PM 68.0 °F - 68.0 °F 100% 29.75 in 2.0 mi WSW 4.6 mph - N/A Thunderstorm Overcast
11:45 PM 69.8 °F - 66.2 °F 88% 29.74 in 3.0 mi WNW 4.6 mph - N/A Thunderstorm Overcast
11:50 PM 69.8 °F - 66.2 °F 88% 29.74 in 4.0 mi NW 5.8 mph - N/A   Overcast